AFR12A LFPG-KJFK

Flight info

Callsign AFR12A
Flight time N/A
Altitude 38000
Route ELCOB6H ELCOB UT300 SENLO UN502 JSY DCT LIZAD DCT ARKIL DCT LIMRI/M084F390 DCT 52N020W 52N030W 51N040W 49N050W DCT JOOPY/N0488F400 N328A TUSKY DCT PLYMM PARCH4
Aircraft A359/H-SDE2E3GHIJ3J4J5LM1ORWXY/LB1D1

Departure

Time 2026-05-08 21:59
Airport Charles de Gaulle International Airport (LFPG)

Arrival

Time N/A
Airport John F. Kennedy International Airport (KJFK)
Time Latitude Longitude Altitude Speed Heading
2026-05-08 21:01 49.00133 2.57722 361 ft 0 kts 355°
2026-05-08 21:31 49.00109 2.57726 366 ft 4 kts 354°
2026-05-08 21:32 49.00083 2.57724 366 ft 4 kts 24°
2026-05-08 21:32 49.00064 2.57700 367 ft 4 kts 64°
2026-05-08 21:32 49.00059 2.57677 367 ft 0 kts 85°
2026-05-08 21:37 49.00057 2.57705 366 ft 5 kts 105°
2026-05-08 21:37 49.00035 2.57731 367 ft 5 kts 149°
2026-05-08 21:38 49.00003 2.57760 367 ft 6 kts 138°
2026-05-08 21:38 48.99982 2.57817 369 ft 5 kts 101°
2026-05-08 21:38 48.99987 2.57864 367 ft 7 kts 82°
2026-05-08 21:38 48.99992 2.57955 366 ft 10 kts 86°
2026-05-08 21:39 48.99993 2.57966 365 ft 0 kts 86°
2026-05-08 21:39 48.99993 2.57967 365 ft 1 kts 86°
2026-05-08 21:40 48.99996 2.58042 362 ft 10 kts 85°
2026-05-08 21:40 49.00002 2.58157 367 ft 12 kts 85°
2026-05-08 21:40 49.00003 2.58184 365 ft 0 kts 86°
2026-05-08 21:41 48.99928 2.58344 369 ft 11 kts 109°
2026-05-08 21:41 48.99918 2.58355 369 ft 2 kts 154°
2026-05-08 21:41 48.99909 2.58346 369 ft 1 kts 216°
2026-05-08 21:41 48.99910 2.58325 365 ft 7 kts 274°
2026-05-08 21:42 48.99914 2.58193 366 ft 11 kts 267°
2026-05-08 21:42 48.99909 2.58063 366 ft 13 kts 266°
2026-05-08 21:42 48.99906 2.58000 362 ft 0 kts 266°
2026-05-08 21:43 48.99902 2.57898 368 ft 31 kts 266°
2026-05-08 21:43 48.99885 2.57627 367 ft 37 kts 263°
2026-05-08 21:43 48.99877 2.57482 365 ft 4 kts 265°
2026-05-08 21:43 48.99874 2.57421 366 ft 7 kts 265°
2026-05-08 21:44 48.99870 2.57318 366 ft 13 kts 266°
2026-05-08 21:44 48.99861 2.57133 366 ft 21 kts 268°
2026-05-08 21:44 48.99925 2.56963 369 ft 16 kts 295°
2026-05-08 21:44 48.99926 2.56738 366 ft 18 kts 264°
2026-05-08 21:45 48.99917 2.56606 366 ft 19 kts 264°
2026-05-08 21:45 48.99908 2.56399 365 ft 20 kts 265°
2026-05-08 21:45 48.99897 2.56177 360 ft 22 kts 266°
2026-05-08 21:45 48.99893 2.55940 360 ft 23 kts 281°
2026-05-08 21:46 48.99945 2.55709 368 ft 23 kts 313°
2026-05-08 21:46 49.00090 2.55626 365 ft 23 kts 344°
2026-05-08 21:46 49.00250 2.55557 367 ft 25 kts 344°
2026-05-08 21:46 49.00420 2.55485 366 ft 26 kts 345°
2026-05-08 21:47 49.00600 2.55408 365 ft 27 kts 345°
2026-05-08 21:47 49.00787 2.55327 365 ft 28 kts 342°
2026-05-08 21:47 49.00977 2.55242 366 ft 29 kts 344°
2026-05-08 21:47 49.01178 2.55156 367 ft 27 kts 348°
2026-05-08 21:48 49.01293 2.55214 367 ft 16 kts 16°
2026-05-08 21:48 49.01408 2.55197 364 ft 18 kts 347°
2026-05-08 21:48 49.01537 2.55166 367 ft 21 kts 353°
2026-05-08 21:48 49.01694 2.55148 368 ft 25 kts 355°
2026-05-08 21:49 49.01779 2.55136 367 ft 0 kts 354°
2026-05-08 21:49 49.01790 2.55135 368 ft 9 kts 355°
2026-05-08 21:49 49.01861 2.55024 367 ft 15 kts 265°
2026-05-08 21:50 49.01850 2.54851 361 ft 18 kts 265°
2026-05-08 21:50 49.01837 2.54643 363 ft 21 kts 265°
2026-05-08 21:50 49.01826 2.54403 366 ft 24 kts 266°
2026-05-08 21:50 49.01812 2.54138 366 ft 26 kts 264°
2026-05-08 21:51 49.01796 2.53852 363 ft 28 kts 265°
2026-05-08 21:51 49.01780 2.53549 363 ft 29 kts 265°
2026-05-08 21:51 49.01762 2.53239 361 ft 30 kts 265°
2026-05-08 21:51 49.01745 2.52919 370 ft 31 kts 266°
2026-05-08 21:52 49.01727 2.52587 369 ft 32 kts 265°
2026-05-08 21:52 49.01713 2.52289 369 ft 15 kts 266°
2026-05-08 21:52 49.01706 2.52116 367 ft 14 kts 266°
2026-05-08 21:52 49.01716 2.51973 365 ft 13 kts 295°
2026-05-08 21:53 49.01784 2.51923 364 ft 11 kts 358°
2026-05-08 21:53 49.01851 2.51948 367 ft 10 kts 36°
2026-05-08 21:53 49.01878 2.52023 361 ft 10 kts 78°
2026-05-08 21:53 49.01913 2.52112 367 ft 10 kts 35°
2026-05-08 21:54 49.01941 2.52134 367 ft 3 kts 351°
2026-05-08 21:54 49.01973 2.52122 366 ft 7 kts 348°
2026-05-08 21:54 49.02005 2.52112 365 ft 0 kts 350°
2026-05-08 21:57 49.02007 2.52112 365 ft 2 kts 350°
2026-05-08 21:57 49.02079 2.52116 364 ft 14 kts 24°
2026-05-08 21:57 49.02111 2.52210 365 ft 0 kts 85°
2026-05-08 21:58 49.02114 2.52275 365 ft 30 kts 85°
2026-05-08 21:58 49.02153 2.52973 367 ft 101 kts 85°
2026-05-08 21:58 49.02229 2.54370 363 ft 161 kts 84°
2026-05-08 21:58 49.02335 2.56244 749 ft 185 kts 84°
2026-05-08 21:59 49.02460 2.58258 1474 ft 197 kts 84°
2026-05-08 21:59 49.02577 2.60405 1953 ft 213 kts 86°
2026-05-08 21:59 49.02692 2.62778 2251 ft 235 kts 85°
2026-05-08 21:59 49.02819 2.65318 2791 ft 245 kts 86°
2026-05-08 22:00 49.02954 2.67913 3452 ft 250 kts 86°
2026-05-08 22:00 49.03094 2.70587 4099 ft 256 kts 86°
2026-05-08 22:00 49.03463 2.73265 4716 ft 263 kts 68°
2026-05-08 22:00 49.04532 2.75495 5286 ft 270 kts 40°
2026-05-08 22:01 49.06253 2.76644 5923 ft 276 kts
2026-05-08 22:01 49.08148 2.76342 6618 ft 277 kts 338°
2026-05-08 22:01 49.09690 2.74640 7294 ft 276 kts 307°
2026-05-08 22:01 49.10471 2.72015 7993 ft 274 kts 277°
2026-05-08 22:02 49.10527 2.69130 8734 ft 272 kts 266°
2026-05-08 22:02 49.10395 2.66242 9477 ft 273 kts 262°
2026-05-08 22:02 49.09901 2.63440 10165 ft 276 kts 249°
2026-05-08 22:02 49.09149 2.60652 10443 ft 293 kts 246°
2026-05-08 22:03 49.08315 2.57721 10550 ft 310 kts 246°
2026-05-08 22:03 49.07437 2.54622 10949 ft 324 kts 246°
2026-05-08 22:03 49.06543 2.51426 11464 ft 329 kts 247°
2026-05-08 22:03 49.05646 2.48214 12064 ft 332 kts 247°
2026-05-08 22:04 49.04736 2.44953 12682 ft 334 kts 247°
2026-05-08 22:04 49.03823 2.41679 13244 ft 337 kts 247°
2026-05-08 22:04 49.02913 2.38358 13790 ft 341 kts 249°
2026-05-08 22:04 49.02309 2.34860 14260 ft 345 kts 262°
2026-05-08 22:05 49.02215 2.31199 14811 ft 346 kts 270°
2026-05-08 22:05 49.02266 2.27524 15347 ft 348 kts 271°
2026-05-08 22:05 49.02326 2.23879 15888 ft 349 kts 271°
2026-05-08 22:05 49.02381 2.20178 16438 ft 351 kts 270°
2026-05-08 22:06 49.02431 2.16439 16961 ft 353 kts 270°
2026-05-08 22:06 49.02478 2.12681 17494 ft 355 kts 270°
2026-05-08 22:06 49.02523 2.08913 18069 ft 356 kts 270°
2026-05-08 22:06 49.02565 2.05132 18567 ft 358 kts 270°
2026-05-08 22:07 49.02607 2.01302 18945 ft 362 kts 270°
2026-05-08 22:07 49.02647 1.97445 19331 ft 366 kts 270°
2026-05-08 22:07 49.02686 1.93598 19731 ft 370 kts 270°
2026-05-08 22:07 49.02725 1.89608 20016 ft 376 kts 270°
2026-05-08 22:08 49.02762 1.85609 20439 ft 377 kts 271°
2026-05-08 22:08 49.02798 1.81608 20872 ft 379 kts 271°
2026-05-08 22:08 49.02834 1.77564 21240 ft 383 kts 271°
2026-05-08 22:08 49.02868 1.73489 21581 ft 388 kts 270°
2026-05-08 22:09 49.02902 1.69358 21918 ft 392 kts 270°
2026-05-08 22:09 49.02933 1.65187 22305 ft 394 kts 270°
2026-05-08 22:09 49.02963 1.61001 22706 ft 397 kts 270°
2026-05-08 22:09 49.02992 1.56796 23098 ft 399 kts 270°
2026-05-08 22:10 49.03020 1.52537 23416 ft 403 kts 270°
2026-05-08 22:10 49.03046 1.48245 23726 ft 407 kts 270°
2026-05-08 22:10 49.03071 1.43917 24042 ft 409 kts 270°
2026-05-08 22:10 49.03095 1.39575 24392 ft 410 kts 270°
2026-05-08 22:11 49.03117 1.35229 24767 ft 411 kts 270°
2026-05-08 22:11 49.03137 1.30868 25099 ft 413 kts 270°
2026-05-08 22:11 49.03156 1.26472 25332 ft 417 kts 270°
2026-05-08 22:11 49.03173 1.22049 25662 ft 419 kts 270°
2026-05-08 22:12 49.03224 1.17599 26043 ft 420 kts 271°
2026-05-08 22:12 49.03352 1.13138 26401 ft 422 kts 272°
2026-05-08 22:12 49.03514 1.08662 26771 ft 424 kts 272°
2026-05-08 22:12 49.03682 1.04165 27142 ft 426 kts 272°
2026-05-08 22:13 49.03840 0.99759 27508 ft 428 kts 272°
2026-05-08 22:13 49.03994 0.95161 27930 ft 430 kts 272°
2026-05-08 22:13 49.04139 0.90542 28349 ft 432 kts 272°
2026-05-08 22:13 49.04274 0.85953 28725 ft 436 kts 271°
2026-05-08 22:14 49.04406 0.81312 29045 ft 440 kts 271°
2026-05-08 22:14 49.04535 0.76698 29448 ft 443 kts 271°
2026-05-08 22:14 49.04664 0.72000 29875 ft 445 kts 271°
2026-05-08 22:14 49.04792 0.67273 30274 ft 447 kts 271°
2026-05-08 22:15 49.04919 0.62526 30644 ft 449 kts 271°
2026-05-08 22:15 49.05045 0.57754 31023 ft 451 kts 271°
2026-05-08 22:15 49.05170 0.52972 31418 ft 453 kts 271°
2026-05-08 22:15 49.05293 0.48171 31795 ft 455 kts 271°
2026-05-08 22:16 49.05415 0.43335 32170 ft 457 kts 271°
2026-05-08 22:16 49.05537 0.38476 32434 ft 461 kts 271°
2026-05-08 22:16 49.05656 0.33590 32777 ft 463 kts 271°
2026-05-08 22:16 49.05773 0.28678 33152 ft 465 kts 271°
2026-05-08 22:17 49.05889 0.23744 33501 ft 466 kts 271°
2026-05-08 22:17 49.06004 0.18794 33854 ft 468 kts 271°
2026-05-08 22:17 49.06116 0.13829 34166 ft 470 kts 271°
2026-05-08 22:17 49.06227 0.08847 34436 ft 472 kts 271°
2026-05-08 22:18 49.06336 0.03836 34708 ft 473 kts 271°
2026-05-08 22:18 49.06444 -0.01179 35106 ft 472 kts 270°
2026-05-08 22:18 49.06550 -0.06191 35394 ft 474 kts 270°
2026-05-08 22:18 49.06653 -0.11213 35729 ft 474 kts 270°
2026-05-08 22:19 49.06754 -0.16233 36128 ft 473 kts 270°
2026-05-08 22:19 49.06852 -0.21238 36510 ft 472 kts 270°
2026-05-08 22:19 49.06949 -0.26248 36871 ft 472 kts 270°
2026-05-08 22:19 49.07048 -0.31233 37225 ft 471 kts 270°
2026-05-08 22:20 49.07140 -0.36223 37567 ft 470 kts 270°
2026-05-08 22:20 49.07229 -0.41203 37920 ft 469 kts 270°
2026-05-08 22:20 49.07315 -0.46183 38082 ft 467 kts 269°
2026-05-08 22:21 49.07481 -0.55940 38081 ft 456 kts 269°
2026-05-08 22:21 49.07636 -0.65593 38070 ft 455 kts 269°
2026-05-08 22:22 49.07782 -0.75258 38065 ft 456 kts 269°
2026-05-08 22:22 49.07922 -0.84911 38063 ft 455 kts 269°
2026-05-08 22:23 49.08054 -0.94569 38053 ft 455 kts 269°
2026-05-08 22:23 49.08178 -1.04221 38050 ft 455 kts 269°
2026-05-08 22:24 49.08302 -1.13872 38044 ft 455 kts 270°
2026-05-08 22:24 49.09260 -1.23426 38046 ft 457 kts 281°
2026-05-08 22:25 49.10722 -1.32817 38057 ft 458 kts 282°
2026-05-08 22:25 49.12272 -1.42278 38036 ft 460 kts 282°
2026-05-08 22:26 49.13814 -1.51778 38037 ft 461 kts 281°
2026-05-08 22:26 49.15336 -1.61297 38031 ft 461 kts 281°
2026-05-08 22:27 49.16842 -1.70817 38034 ft 461 kts 281°
2026-05-08 22:27 49.18341 -1.80346 38034 ft 461 kts 281°
2026-05-08 22:28 49.19833 -1.89889 38041 ft 462 kts 281°
2026-05-08 22:28 49.21319 -1.99444 38045 ft 462 kts 281°
2026-05-08 22:29 49.22811 -2.08948 38030 ft 462 kts 281°
2026-05-08 22:29 49.24450 -2.18464 38033 ft 462 kts 282°
2026-05-08 22:30 49.26114 -2.27977 38035 ft 463 kts 282°
2026-05-08 22:30 49.27752 -2.37514 38037 ft 463 kts 282°
2026-05-08 22:31 49.29369 -2.47061 38044 ft 463 kts 282°
2026-05-08 22:31 49.30701 -2.54989 38043 ft 462 kts 281°
2026-05-08 22:32 49.32297 -2.64529 38047 ft 462 kts 281°
2026-05-08 22:32 49.33885 -2.74074 38044 ft 463 kts 281°
2026-05-08 22:33 49.35470 -2.83651 38023 ft 463 kts 281°
2026-05-08 22:33 49.37046 -2.93225 38022 ft 463 kts 281°
2026-05-08 22:34 49.38617 -3.02824 38018 ft 463 kts 281°
2026-05-08 22:34 49.40177 -3.12413 38039 ft 463 kts 281°
2026-05-08 22:35 49.41731 -3.22014 38020 ft 463 kts 281°
2026-05-08 22:35 49.43276 -3.31621 38020 ft 463 kts 281°
2026-05-08 22:36 49.44815 -3.41244 38020 ft 463 kts 280°
2026-05-08 22:36 49.46345 -3.50866 38020 ft 463 kts 280°
2026-05-08 22:37 49.47866 -3.60490 38030 ft 463 kts 280°
2026-05-08 22:37 49.49380 -3.70126 38023 ft 464 kts 280°
2026-05-08 22:38 49.50882 -3.79740 38017 ft 465 kts 280°
2026-05-08 22:38 49.52383 -3.89408 38018 ft 465 kts 280°
2026-05-08 22:39 49.53887 -3.99147 38018 ft 464 kts 280°
2026-05-08 22:39 49.55362 -4.08763 38022 ft 465 kts 279°
2026-05-08 22:40 49.56845 -4.18489 38027 ft 467 kts 279°
2026-05-08 22:40 49.58323 -4.28226 38022 ft 467 kts 279°
2026-05-08 22:41 49.60533 -4.37677 38019 ft 471 kts 291°
2026-05-08 22:41 49.63316 -4.46850 38024 ft 472 kts 292°
2026-05-08 22:42 49.66181 -4.55979 38033 ft 474 kts 292°
2026-05-08 22:42 49.69049 -4.65152 38026 ft 474 kts 292°
2026-05-08 22:43 49.71892 -4.74335 38026 ft 474 kts 292°
2026-05-08 22:43 49.74718 -4.83522 38025 ft 473 kts 292°
2026-05-08 22:44 49.77538 -4.92725 38026 ft 473 kts 292°
2026-05-08 22:44 49.80350 -5.01938 38032 ft 473 kts 292°
2026-05-08 22:45 49.83157 -5.11163 38028 ft 473 kts 291°
2026-05-08 22:45 49.85955 -5.20395 38035 ft 473 kts 291°
2026-05-08 22:46 49.88736 -5.29605 38036 ft 471 kts 291°
2026-05-08 22:46 49.91499 -5.38790 38034 ft 470 kts 291°
2026-05-08 22:47 49.94256 -5.47994 38050 ft 470 kts 291°
2026-05-08 22:47 49.97010 -5.57222 38042 ft 471 kts 291°
2026-05-08 22:48 49.99761 -5.66474 38036 ft 471 kts 291°
2026-05-08 22:48 50.02504 -5.75731 38041 ft 471 kts 291°
2026-05-08 22:49 50.05235 -5.84985 38019 ft 471 kts 291°
2026-05-08 22:49 50.09292 -5.98795 38040 ft 469 kts 291°
2026-05-08 22:50 50.11997 -6.08052 38037 ft 469 kts 290°
2026-05-08 22:50 50.14698 -6.17328 38038 ft 469 kts 290°
2026-05-08 22:51 50.17387 -6.26602 38039 ft 469 kts 290°
2026-05-08 22:51 50.20071 -6.35888 38037 ft 469 kts 290°
2026-05-08 22:52 50.22745 -6.45180 38048 ft 469 kts 290°
2026-05-08 22:52 50.25413 -6.54488 38044 ft 470 kts 290°
2026-05-08 22:53 50.28077 -6.63816 38040 ft 470 kts 290°
2026-05-08 22:53 50.30734 -6.73156 38040 ft 470 kts 290°
2026-05-08 22:54 50.33378 -6.82491 38120 ft 470 kts 290°
2026-05-08 22:54 50.36022 -6.91858 38051 ft 470 kts 290°
2026-05-08 22:55 50.38636 -7.01156 38045 ft 470 kts 289°
2026-05-08 22:55 50.41266 -7.10549 38050 ft 471 kts 289°
2026-05-08 22:56 50.43891 -7.19961 38055 ft 470 kts 289°
2026-05-08 22:56 50.46500 -7.29353 38049 ft 469 kts 289°
2026-05-08 22:57 50.49103 -7.38761 38055 ft 469 kts 289°
2026-05-08 22:57 50.51695 -7.48170 38052 ft 469 kts 289°
2026-05-08 22:58 50.54278 -7.57582 38062 ft 469 kts 289°
2026-05-08 22:58 50.56855 -7.67012 38055 ft 469 kts 289°
2026-05-08 22:59 50.59419 -7.76430 38051 ft 469 kts 289°
2026-05-08 22:59 50.61978 -7.85867 38067 ft 468 kts 289°
2026-05-08 23:00 50.64520 -7.95277 38076 ft 465 kts 289°
2026-05-08 23:00 50.66996 -8.04666 38061 ft 462 kts 287°
2026-05-08 23:01 50.69142 -8.14199 38067 ft 461 kts 284°
2026-05-08 23:01 50.71199 -8.23701 38067 ft 461 kts 285°
2026-05-08 23:02 50.73309 -8.33261 38067 ft 461 kts 285°
2026-05-08 23:02 50.75441 -8.42808 38067 ft 461 kts 285°
2026-05-08 23:03 50.77571 -8.52354 38079 ft 460 kts 285°
2026-05-08 23:03 50.79691 -8.61898 38089 ft 460 kts 285°
2026-05-08 23:04 50.81799 -8.71446 38073 ft 460 kts 285°
2026-05-08 23:04 50.83899 -8.81004 38084 ft 460 kts 285°
2026-05-08 23:05 50.85990 -8.90563 38090 ft 460 kts 285°
2026-05-08 23:05 50.88075 -9.00137 38082 ft 460 kts 285°
2026-05-08 23:06 50.90152 -9.09725 38077 ft 461 kts 285°
2026-05-08 23:06 50.92225 -9.19334 38077 ft 461 kts 285°
2026-05-08 23:07 50.94289 -9.28946 38075 ft 461 kts 285°
2026-05-08 23:07 50.96344 -9.38565 38085 ft 460 kts 285°
2026-05-08 23:08 50.98388 -9.48177 38093 ft 459 kts 285°
2026-05-08 23:08 51.00424 -9.57794 38086 ft 460 kts 285°
2026-05-08 23:09 51.02439 -9.67362 38086 ft 460 kts 285°
2026-05-08 23:09 51.04461 -9.77002 38092 ft 460 kts 285°
2026-05-08 23:10 51.06475 -9.86654 38090 ft 460 kts 285°
2026-05-08 23:10 51.08478 -9.96303 38089 ft 460 kts 285°
2026-05-08 23:11 51.10474 -10.05963 38092 ft 460 kts 285°
2026-05-08 23:11 51.12465 -10.15644 38089 ft 460 kts 284°
2026-05-08 23:12 51.14442 -10.25305 38093 ft 458 kts 285°
2026-05-08 23:12 51.16406 -10.34943 38098 ft 457 kts 285°
2026-05-08 23:13 51.18358 -10.44579 38099 ft 457 kts 284°
2026-05-08 23:13 51.20302 -10.54224 38107 ft 457 kts 285°
2026-05-08 23:14 51.22236 -10.63861 38100 ft 456 kts 285°
2026-05-08 23:14 51.24149 -10.73438 38108 ft 456 kts 284°
2026-05-08 23:15 51.26068 -10.83095 38104 ft 456 kts 284°
2026-05-08 23:15 51.27978 -10.92755 38106 ft 456 kts 284°
2026-05-08 23:16 51.29879 -11.02419 38112 ft 456 kts 284°
2026-05-08 23:16 51.31774 -11.12102 38110 ft 457 kts 284°
2026-05-08 23:17 51.33663 -11.21805 38110 ft 457 kts 284°
2026-05-08 23:17 51.35545 -11.31519 38110 ft 457 kts 284°
2026-05-08 23:18 51.37102 -11.39595 38121 ft 457 kts 284°
2026-05-08 23:18 51.38970 -11.49327 38121 ft 457 kts 284°
2026-05-08 23:19 51.40830 -11.59066 38127 ft 457 kts 284°
2026-05-08 23:19 51.42983 -11.70402 38126 ft 458 kts 284°
2026-05-08 23:20 51.44530 -11.78587 38129 ft 458 kts 284°
2026-05-08 23:20 51.46355 -11.88298 38129 ft 457 kts 283°
2026-05-08 23:21 51.48180 -11.98053 38138 ft 456 kts 283°
2026-05-08 23:21 51.49994 -12.07801 38140 ft 456 kts 283°
2026-05-08 23:22 51.51803 -12.17572 38140 ft 456 kts 282°
2026-05-08 23:22 51.53598 -12.27330 38143 ft 455 kts 283°
2026-05-08 23:23 51.55385 -12.37092 38151 ft 456 kts 283°
2026-05-08 23:23 51.57168 -12.46867 38157 ft 456 kts 282°
2026-05-08 23:24 51.58945 -12.56667 38156 ft 455 kts 283°
2026-05-08 23:24 51.60706 -12.66445 38170 ft 455 kts 283°
2026-05-08 23:25 51.62455 -12.76194 38167 ft 452 kts 283°
2026-05-08 23:25 51.64188 -12.85921 38173 ft 452 kts 283°
2026-05-08 23:26 51.65915 -12.95649 38175 ft 452 kts 282°
2026-05-08 23:26 51.67619 -13.05300 38180 ft 450 kts 282°
2026-05-08 23:27 51.69322 -13.15026 38182 ft 451 kts 283°
2026-05-08 23:27 51.71018 -13.24769 38185 ft 453 kts 284°
2026-05-08 23:28 51.72723 -13.34575 38195 ft 454 kts 283°
2026-05-08 23:28 51.74420 -13.44390 38195 ft 453 kts 282°
2026-05-08 23:29 51.76102 -13.54199 38197 ft 454 kts 281°
2026-05-08 23:29 51.77777 -13.64039 38197 ft 455 kts 282°
2026-05-08 23:30 51.79448 -13.73892 38223 ft 455 kts 282°
2026-05-08 23:30 51.81105 -13.83702 38214 ft 456 kts 281°
2026-05-08 23:31 51.82762 -13.93595 38210 ft 456 kts 282°
2026-05-08 23:31 51.84414 -14.03512 38222 ft 457 kts 282°
2026-05-08 23:32 51.86060 -14.13428 38222 ft 456 kts 283°
2026-05-08 23:32 51.87696 -14.23339 38225 ft 456 kts 281°
2026-05-08 23:33 51.89320 -14.33260 38233 ft 456 kts 283°
2026-05-08 23:33 51.90932 -14.43155 38237 ft 454 kts 282°
2026-05-08 23:34 51.92530 -14.53014 38236 ft 452 kts 282°
2026-05-08 23:34 51.94115 -14.62856 38239 ft 451 kts 282°
2026-05-08 23:35 51.95689 -14.72697 38247 ft 451 kts 283°
2026-05-08 23:35 51.97258 -14.82556 38255 ft 452 kts 282°
2026-05-08 23:36 51.98821 -14.92437 38248 ft 453 kts 283°
2026-05-08 23:36 51.99971 -15.02432 38262 ft 449 kts 272°
2026-05-08 23:37 52.00304 -15.12498 38258 ft 451 kts 271°
2026-05-08 23:37 52.00499 -15.22650 38258 ft 449 kts 270°
2026-05-08 23:38 52.00667 -15.32786 38261 ft 449 kts 270°
2026-05-08 23:38 52.00839 -15.42906 38260 ft 446 kts 270°
2026-05-08 23:39 52.01010 -15.52935 38261 ft 444 kts 271°
2026-05-08 23:39 52.01174 -15.62982 38262 ft 445 kts 270°
2026-05-08 23:40 52.01330 -15.73012 38277 ft 444 kts 270°
2026-05-08 23:40 52.01475 -15.83059 38274 ft 446 kts 270°
2026-05-08 23:41 52.01613 -15.93126 38275 ft 446 kts 271°
2026-05-08 23:41 52.01742 -16.03224 38278 ft 448 kts 270°
2026-05-08 23:42 52.01863 -16.13339 38280 ft 447 kts 270°
2026-05-08 23:42 52.01976 -16.23429 38282 ft 447 kts 270°
2026-05-08 23:43 52.02079 -16.33470 38290 ft 448 kts 270°
2026-05-08 23:43 52.02174 -16.43561 38290 ft 448 kts 270°
2026-05-08 23:44 52.02261 -16.53728 38295 ft 451 kts 270°
2026-05-08 23:44 52.02340 -16.63908 38295 ft 451 kts 270°
2026-05-08 23:45 52.02410 -16.74098 38296 ft 451 kts 270°
2026-05-08 23:45 52.02471 -16.84279 38298 ft 450 kts 270°
2026-05-08 23:46 52.02523 -16.94463 38302 ft 452 kts 270°
2026-05-08 23:46 52.02566 -17.04708 38307 ft 454 kts 270°
2026-05-08 23:47 52.02602 -17.14963 38309 ft 454 kts 270°
2026-05-08 23:47 52.02628 -17.25214 38308 ft 454 kts 270°
2026-05-08 23:48 52.02645 -17.35457 38314 ft 454 kts 270°
2026-05-08 23:48 52.02652 -17.45644 38315 ft 455 kts 271°
2026-05-08 23:49 52.02652 -17.55925 38314 ft 456 kts 271°
2026-05-08 23:49 52.02642 -17.66241 38325 ft 456 kts 271°
2026-05-08 23:50 52.02624 -17.76539 38325 ft 456 kts 270°
2026-05-08 23:50 52.02596 -17.86840 38324 ft 456 kts 270°
2026-05-08 23:51 52.02559 -17.97148 38330 ft 457 kts 270°
2026-05-08 23:51 52.02513 -18.07473 38330 ft 458 kts 271°
2026-05-08 23:52 52.02460 -18.17821 38330 ft 458 kts 271°
2026-05-08 23:52 52.02396 -18.28081 38338 ft 458 kts 271°
2026-05-08 23:53 52.02323 -18.38415 38341 ft 458 kts 270°
2026-05-08 23:53 52.02240 -18.48753 38342 ft 459 kts 272°
2026-05-08 23:54 52.02149 -18.59142 38343 ft 461 kts 271°
2026-05-08 23:55 52.01994 -18.74745 38344 ft 461 kts 271°
2026-05-08 23:55 52.01880 -18.85147 38344 ft 461 kts 270°
2026-05-08 23:56 52.01755 -18.95538 38354 ft 461 kts 271°
2026-05-08 23:56 52.01625 -19.05970 38350 ft 463 kts 271°
2026-05-08 23:57 52.01481 -19.16422 38354 ft 464 kts 272°
2026-05-08 23:57 52.01329 -19.26886 38359 ft 463 kts 272°
2026-05-08 23:58 52.01165 -19.37334 38360 ft 463 kts 272°
2026-05-08 23:58 52.00998 -19.47714 38362 ft 463 kts 272°
2026-05-08 23:59 52.00820 -19.58192 38366 ft 465 kts 271°
2026-05-08 23:59 52.00630 -19.68690 38364 ft 465 kts 271°
2026-05-09 00:00 52.00429 -19.79178 38367 ft 465 kts 271°
2026-05-09 00:00 52.00220 -19.89680 38370 ft 465 kts 272°
2026-05-09 00:01 52.00088 -20.00158 38370 ft 464 kts 276°
2026-05-09 00:01 52.00436 -20.10602 38374 ft 464 kts 277°
2026-05-09 00:02 52.00862 -20.21049 38376 ft 464 kts 277°
2026-05-09 00:02 52.01296 -20.31504 38376 ft 464 kts 277°
2026-05-09 00:03 52.01713 -20.41950 38379 ft 464 kts 277°
2026-05-09 00:03 52.02116 -20.52416 38379 ft 464 kts 277°
2026-05-09 00:04 52.02508 -20.62870 38388 ft 464 kts 276°
2026-05-09 00:04 52.02890 -20.73320 38387 ft 464 kts 276°
2026-05-09 00:05 52.03264 -20.83786 38389 ft 464 kts 277°
2026-05-09 00:05 52.03626 -20.94168 38390 ft 464 kts 276°
2026-05-09 00:06 52.03982 -21.04644 38383 ft 464 kts 277°
2026-05-09 00:06 52.04328 -21.15116 38401 ft 465 kts 277°
2026-05-09 00:07 52.04666 -21.25605 38401 ft 465 kts 276°
2026-05-09 00:07 52.04993 -21.36084 38400 ft 464 kts 277°
2026-05-09 00:08 52.05311 -21.46568 38403 ft 464 kts 276°
2026-05-09 00:08 52.05620 -21.57043 38408 ft 464 kts 276°
2026-05-09 00:09 52.05870 -21.65752 38407 ft 465 kts 277°
2026-05-09 00:09 52.06164 -21.76259 38414 ft 465 kts 277°
2026-05-09 00:10 52.06492 -21.88472 38406 ft 465 kts 277°
2026-05-09 00:10 52.06764 -21.98977 38406 ft 465 kts 276°
2026-05-09 00:11 52.06986 -22.07786 38425 ft 465 kts 276°
2026-05-09 00:11 52.07241 -22.18294 38419 ft 466 kts 277°
2026-05-09 00:12 52.07488 -22.28821 38427 ft 466 kts 277°
2026-05-09 00:12 52.07723 -22.39279 38422 ft 466 kts 277°
2026-05-09 00:13 52.07950 -22.49800 38421 ft 466 kts 277°
2026-05-09 00:13 52.08168 -22.60319 38432 ft 465 kts 277°
2026-05-09 00:14 52.08376 -22.70831 38445 ft 465 kts 277°
2026-05-09 00:14 52.08576 -22.81339 38430 ft 465 kts 277°
2026-05-09 00:15 52.08766 -22.91846 38434 ft 465 kts 277°
2026-05-09 00:15 52.08947 -23.02371 38439 ft 465 kts 277°
2026-05-09 00:16 52.09118 -23.12886 38442 ft 465 kts 277°
2026-05-09 00:16 52.09280 -23.23401 38443 ft 465 kts 277°
2026-05-09 00:17 52.09432 -23.33901 38450 ft 464 kts 277°
2026-05-09 00:17 52.09575 -23.44404 38459 ft 465 kts 277°
2026-05-09 00:18 52.09709 -23.54920 38457 ft 465 kts 277°
2026-05-09 00:18 52.09832 -23.65354 38446 ft 464 kts 277°
2026-05-09 00:19 52.09946 -23.75845 38446 ft 463 kts 277°
2026-05-09 00:19 52.10051 -23.86334 38462 ft 464 kts 277°
2026-05-09 00:20 52.10148 -23.96834 38468 ft 464 kts 277°
2026-05-09 00:20 52.10235 -24.07329 38467 ft 464 kts 277°
2026-05-09 00:21 52.10313 -24.17837 38470 ft 464 kts 277°
2026-05-09 00:21 52.10381 -24.28333 38440 ft 464 kts 277°
2026-05-09 00:22 52.10441 -24.38850 38468 ft 465 kts 277°
2026-05-09 00:22 52.10491 -24.49378 38475 ft 466 kts 277°
2026-05-09 00:23 52.10531 -24.59912 38468 ft 466 kts 277°
2026-05-09 00:23 52.10561 -24.70443 38472 ft 465 kts 277°
2026-05-09 00:24 52.10583 -24.80898 38475 ft 465 kts 277°
2026-05-09 00:24 52.10595 -24.91432 38477 ft 466 kts 277°
2026-05-09 00:25 52.10598 -25.01971 38481 ft 466 kts 277°
2026-05-09 00:25 52.10592 -25.12510 38486 ft 466 kts 277°
2026-05-09 00:26 52.10576 -25.23075 38483 ft 466 kts 277°
2026-05-09 00:26 52.10550 -25.33615 38490 ft 466 kts 277°
2026-05-09 00:27 52.10515 -25.44160 38490 ft 466 kts 277°
2026-05-09 00:27 52.10472 -25.54708 38489 ft 467 kts 277°
2026-05-09 00:28 52.10419 -25.65200 38492 ft 467 kts 277°
2026-05-09 00:28 52.10356 -25.75765 38495 ft 467 kts 277°
2026-05-09 00:29 52.10283 -25.86320 38495 ft 467 kts 277°
2026-05-09 00:29 52.10201 -25.96868 38483 ft 466 kts 277°
2026-05-09 00:30 52.10109 -26.07412 38497 ft 466 kts 277°
2026-05-09 00:30 52.10009 -26.17954 38509 ft 466 kts 277°
2026-05-09 00:31 52.09900 -26.28490 38509 ft 466 kts 277°
2026-05-09 00:31 52.09781 -26.39029 38505 ft 466 kts 277°
2026-05-09 00:32 52.09652 -26.49505 38508 ft 466 kts 277°
2026-05-09 00:32 52.09515 -26.60043 38511 ft 466 kts 277°
2026-05-09 00:33 52.09368 -26.70579 38517 ft 466 kts 277°
2026-05-09 00:33 52.09211 -26.81125 38516 ft 466 kts 277°
2026-05-09 00:34 52.09045 -26.91666 38521 ft 466 kts 277°
2026-05-09 00:34 52.08869 -27.02201 38514 ft 466 kts 277°
2026-05-09 00:35 52.08683 -27.12749 38526 ft 467 kts 277°
2026-05-09 00:35 52.08488 -27.23303 38525 ft 467 kts 277°
2026-05-09 00:36 52.08284 -27.33845 38537 ft 467 kts 277°
2026-05-09 00:36 52.08071 -27.44385 38528 ft 467 kts 277°
2026-05-09 00:37 52.07849 -27.54860 38517 ft 467 kts 277°
2026-05-09 00:37 52.07617 -27.65422 38541 ft 468 kts 277°
2026-05-09 00:38 52.07375 -27.75986 38547 ft 468 kts 277°
2026-05-09 00:38 52.07123 -27.86559 38546 ft 468 kts 277°
2026-05-09 00:39 52.06862 -27.97125 38547 ft 468 kts 277°
2026-05-09 00:39 52.06591 -28.07685 38524 ft 468 kts 277°
2026-05-09 00:40 52.06311 -28.18254 38554 ft 468 kts 277°
2026-05-09 00:40 52.06021 -28.28832 38548 ft 468 kts 278°
2026-05-09 00:41 52.05569 -28.44661 38561 ft 467 kts 278°
2026-05-09 00:41 52.05257 -28.55204 38562 ft 467 kts 278°
2026-05-09 00:42 52.04937 -28.65679 38556 ft 468 kts 278°
2026-05-09 00:42 52.04606 -28.76236 38559 ft 468 kts 278°
2026-05-09 00:43 52.04265 -28.86803 38565 ft 468 kts 278°
2026-05-09 00:43 52.03913 -28.97371 38562 ft 468 kts 277°
2026-05-09 00:44 52.03552 -29.07941 38568 ft 469 kts 277°
2026-05-09 00:44 52.03181 -29.18509 38561 ft 469 kts 278°
2026-05-09 00:45 52.02802 -29.29093 38570 ft 470 kts 277°
2026-05-09 00:45 52.02412 -29.39688 38570 ft 470 kts 277°
2026-05-09 00:46 52.02011 -29.50288 38574 ft 470 kts 277°
2026-05-09 00:46 52.01602 -29.60889 38573 ft 471 kts 277°
2026-05-09 00:47 52.01185 -29.71435 38557 ft 471 kts 277°
2026-05-09 00:47 52.00756 -29.82056 38581 ft 472 kts 277°
2026-05-09 00:48 52.00316 -29.92693 38591 ft 473 kts 277°
2026-05-09 00:48 51.99860 -30.03350 38583 ft 474 kts 276°
2026-05-09 00:49 51.99270 -30.14017 38574 ft 475 kts 275°
2026-05-09 00:49 51.98621 -30.24694 38569 ft 476 kts 275°
2026-05-09 00:50 51.97977 -30.35378 38584 ft 476 kts 275°
2026-05-09 00:50 51.97342 -30.46016 38586 ft 476 kts 275°
2026-05-09 00:51 51.96697 -30.56713 38586 ft 476 kts 275°
2026-05-09 00:51 51.96044 -30.67404 38586 ft 477 kts 275°
2026-05-09 00:52 51.95380 -30.78090 38570 ft 477 kts 275°
2026-05-09 00:52 51.94706 -30.88785 38590 ft 477 kts 275°
2026-05-09 00:53 51.94021 -30.99479 38592 ft 477 kts 275°
2026-05-09 00:53 51.93327 -31.10174 38588 ft 477 kts 274°
2026-05-09 00:54 51.92623 -31.20866 38587 ft 477 kts 274°
2026-05-09 00:54 51.91908 -31.31563 38588 ft 477 kts 274°
2026-05-09 00:55 51.91184 -31.42252 38588 ft 478 kts 274°
2026-05-09 00:55 51.90451 -31.52941 38588 ft 478 kts 274°
2026-05-09 00:56 51.89707 -31.63636 38586 ft 478 kts 274°
2026-05-09 00:56 51.88953 -31.74322 38590 ft 478 kts 274°
2026-05-09 00:57 51.88190 -31.85007 38584 ft 478 kts 274°
2026-05-09 00:57 51.87417 -31.95676 38593 ft 477 kts 273°
2026-05-09 00:58 51.86636 -32.06337 38592 ft 477 kts 273°
2026-05-09 00:58 51.85846 -32.16990 38590 ft 477 kts 273°
2026-05-09 00:59 51.85050 -32.27581 38593 ft 477 kts 273°
2026-05-09 00:59 51.84240 -32.38237 38588 ft 477 kts 272°
2026-05-09 01:00 51.83421 -32.48881 38595 ft 477 kts 272°
2026-05-09 01:00 51.82732 -32.57728 38595 ft 477 kts 272°
2026-05-09 01:01 51.81894 -32.68376 38592 ft 477 kts 272°
2026-05-09 01:01 51.81046 -32.79013 38592 ft 477 kts 272°
2026-05-09 01:02 51.80189 -32.89658 38586 ft 478 kts 272°
2026-05-09 01:02 51.79321 -33.00301 38589 ft 478 kts 271°
2026-05-09 01:03 51.78445 -33.10920 38589 ft 476 kts 271°
2026-05-09 01:03 51.77562 -33.21486 38589 ft 474 kts 271°
2026-05-09 01:04 51.76673 -33.32040 38590 ft 474 kts 271°
2026-05-09 01:04 51.75776 -33.42585 38596 ft 473 kts 270°
2026-05-09 01:05 51.74870 -33.53074 38583 ft 471 kts 270°
2026-05-09 01:06 51.73502 -33.68757 38581 ft 471 kts 270°
2026-05-09 01:06 51.72577 -33.79217 38581 ft 471 kts 270°
2026-05-09 01:07 51.71651 -33.89591 38547 ft 470 kts 269°
2026-05-09 01:07 51.70709 -33.99978 38579 ft 466 kts 269°
2026-05-09 01:08 51.69768 -34.10287 38573 ft 464 kts 269°
2026-05-09 01:08 51.68820 -34.20597 38572 ft 464 kts 269°
2026-05-09 01:09 51.67865 -34.30850 38566 ft 460 kts 269°
2026-05-09 01:09 51.66915 -34.40949 38531 ft 457 kts 269°
2026-05-09 01:10 51.65957 -34.51055 38574 ft 455 kts 269°
2026-05-09 01:10 51.64995 -34.61119 38573 ft 454 kts 269°
2026-05-09 01:11 51.64025 -34.71175 38565 ft 454 kts 268°
2026-05-09 01:11 51.63044 -34.81237 38565 ft 455 kts 268°
2026-05-09 01:12 51.62055 -34.91290 38569 ft 455 kts 268°
2026-05-09 01:12 51.61057 -35.01339 38562 ft 455 kts 268°
2026-05-09 01:13 51.60051 -35.11370 38562 ft 455 kts 268°
2026-05-09 01:13 51.59036 -35.21407 38557 ft 454 kts 268°
2026-05-09 01:14 51.58020 -35.31372 38557 ft 454 kts 268°
2026-05-09 01:14 51.56989 -35.41385 38528 ft 454 kts 268°
2026-05-09 01:15 51.55950 -35.51377 38557 ft 451 kts 267°
2026-05-09 01:15 51.54911 -35.61294 38551 ft 449 kts 267°
2026-05-09 01:16 51.53867 -35.71190 38549 ft 449 kts 267°
2026-05-09 01:16 51.52815 -35.81079 38546 ft 449 kts 267°
2026-05-09 01:17 51.51225 -35.95869 38522 ft 449 kts 267°
2026-05-09 01:17 51.50153 -36.05719 38539 ft 447 kts 266°
2026-05-09 01:18 51.49077 -36.15536 38533 ft 446 kts 266°
2026-05-09 01:18 51.47994 -36.25339 38543 ft 446 kts 266°
2026-05-09 01:19 51.46903 -36.35140 38540 ft 446 kts 266°
2026-05-09 01:19 51.45804 -36.44932 38536 ft 446 kts 266°
2026-05-09 01:20 51.44697 -36.54720 38533 ft 446 kts 266°
2026-05-09 01:20 51.43581 -36.64499 38526 ft 444 kts 266°
2026-05-09 01:21 51.42465 -36.74197 38530 ft 441 kts 266°
2026-05-09 01:21 51.41347 -36.83853 38527 ft 441 kts 266°
2026-05-09 01:22 51.40223 -36.93508 38530 ft 441 kts 266°
2026-05-09 01:22 51.39098 -37.03083 38520 ft 439 kts 265°
2026-05-09 01:23 51.37961 -37.12669 38521 ft 438 kts 265°
2026-05-09 01:23 51.36820 -37.22243 38521 ft 438 kts 265°
2026-05-09 01:24 51.35671 -37.31810 38513 ft 438 kts 265°
2026-05-09 01:24 51.34514 -37.41369 38506 ft 438 kts 265°
2026-05-09 01:25 51.33350 -37.50923 38502 ft 437 kts 265°
2026-05-09 01:25 51.32179 -37.60451 38501 ft 436 kts 265°
2026-05-09 01:26 51.31005 -37.69946 38500 ft 435 kts 265°
2026-05-09 01:26 51.29824 -37.79433 38488 ft 435 kts 264°
2026-05-09 01:27 51.28636 -37.88899 38493 ft 434 kts 264°
2026-05-09 01:27 51.27445 -37.98334 38468 ft 433 kts 264°
2026-05-09 01:28 51.26246 -38.07772 38485 ft 433 kts 264°
2026-05-09 01:28 51.25048 -38.17132 38480 ft 433 kts 264°
2026-05-09 01:29 51.23833 -38.26552 38479 ft 433 kts 263°
2026-05-09 01:29 51.22611 -38.35977 38479 ft 433 kts 263°
2026-05-09 01:30 51.21380 -38.45394 38468 ft 433 kts 263°
2026-05-09 01:30 51.20143 -38.54804 38468 ft 434 kts 263°
2026-05-09 01:31 51.18897 -38.64219 38460 ft 434 kts 263°
2026-05-09 01:31 51.17651 -38.73569 38460 ft 434 kts 263°
2026-05-09 01:32 51.16390 -38.82974 38455 ft 434 kts 263°
2026-05-09 01:32 51.15121 -38.92377 38452 ft 434 kts 262°
2026-05-09 01:33 51.13846 -39.01758 38439 ft 433 kts 262°
2026-05-09 01:33 51.12567 -39.11104 38442 ft 432 kts 262°
2026-05-09 01:34 51.11283 -39.20437 38436 ft 432 kts 262°
2026-05-09 01:34 51.09993 -39.29759 38439 ft 432 kts 262°
2026-05-09 01:35 51.08693 -39.39090 38420 ft 432 kts 262°
2026-05-09 01:35 51.07387 -39.48407 38414 ft 432 kts 261°
2026-05-09 01:36 51.06081 -39.57655 38429 ft 431 kts 261°
2026-05-09 01:36 51.04763 -39.66939 38429 ft 430 kts 261°
2026-05-09 01:37 51.03438 -39.76215 38430 ft 430 kts 261°
2026-05-09 01:37 51.02106 -39.85487 38415 ft 430 kts 261°
2026-05-09 01:38 51.00764 -39.94767 38419 ft 430 kts 261°
2026-05-09 01:38 50.99416 -40.04017 38397 ft 429 kts 260°
2026-05-09 01:39 50.98037 -40.13141 38403 ft 425 kts 259°
2026-05-09 01:39 50.96644 -40.22256 38381 ft 424 kts 259°
2026-05-09 01:40 50.95252 -40.31345 38385 ft 424 kts 259°
2026-05-09 01:40 50.93857 -40.40437 38379 ft 424 kts 259°
2026-05-09 01:41 50.92460 -40.49507 38377 ft 424 kts 259°
2026-05-09 01:41 50.91056 -40.58553 38372 ft 422 kts 259°
2026-05-09 01:42 50.89645 -40.67609 38373 ft 430 kts 259°
2026-05-09 01:42 50.88180 -40.76984 38357 ft 447 kts 258°
2026-05-09 01:43 50.86646 -40.86707 38357 ft 463 kts 258°
2026-05-09 01:43 50.85068 -40.96637 38346 ft 463 kts 257°
2026-05-09 01:44 50.83495 -41.06459 38354 ft 460 kts 257°
2026-05-09 01:44 50.81919 -41.16255 38352 ft 459 kts 257°
2026-05-09 01:45 50.80339 -41.26039 38342 ft 458 kts 257°
2026-05-09 01:45 50.78753 -41.35797 38338 ft 458 kts 257°
2026-05-09 01:46 50.77171 -41.45467 38338 ft 457 kts 256°
2026-05-09 01:46 50.75571 -41.55197 38330 ft 455 kts 257°
2026-05-09 01:47 50.73971 -41.64875 38329 ft 456 kts 257°
2026-05-09 01:47 50.72358 -41.74566 38319 ft 457 kts 257°
2026-05-09 01:48 50.70738 -41.84253 38317 ft 456 kts 256°
2026-05-09 01:48 50.69110 -41.93949 38302 ft 456 kts 256°
2026-05-09 01:49 50.67478 -42.03599 38306 ft 455 kts 256°
2026-05-09 01:49 50.65841 -42.13219 38296 ft 455 kts 255°
2026-05-09 01:50 50.64190 -42.22859 38295 ft 455 kts 256°
2026-05-09 01:50 50.62535 -42.32481 38291 ft 455 kts 256°
2026-05-09 01:51 50.61160 -42.40441 38289 ft 446 kts 255°
2026-05-09 01:51 50.60358 -42.45060 38264 ft 430 kts 255°
2026-05-09 01:51 50.59569 -42.49598 38269 ft 429 kts 255°
2026-05-09 01:52 50.57764 -42.59930 38275 ft 415 kts 255°
2026-05-09 01:52 50.56480 -42.67246 38268 ft 414 kts 255°
2026-05-09 01:53 50.54923 -42.76076 38258 ft 431 kts 254°
2026-05-09 01:53 50.53284 -42.85325 38264 ft 448 kts 254°
2026-05-09 01:54 50.51585 -42.94870 38260 ft 458 kts 254°
2026-05-09 01:54 50.49867 -43.04459 38252 ft 452 kts 254°
2026-05-09 01:55 50.48158 -43.13955 38252 ft 451 kts 253°
2026-05-09 01:55 50.46445 -43.23419 38248 ft 451 kts 253°
2026-05-09 01:56 50.44727 -43.32861 38245 ft 450 kts 253°
2026-05-09 01:56 50.42998 -43.42320 38243 ft 450 kts 253°
2026-05-09 01:57 50.41266 -43.51752 38229 ft 450 kts 252°
2026-05-09 01:57 50.39532 -43.61136 38222 ft 448 kts 252°
2026-05-09 01:58 50.37789 -43.70518 38220 ft 448 kts 252°
2026-05-09 01:58 50.36036 -43.79905 38213 ft 449 kts 252°
2026-05-09 01:59 50.34288 -43.89231 38199 ft 450 kts 251°
2026-05-09 01:59 50.32552 -43.98455 38198 ft 427 kts 251°
2026-05-09 02:00 50.31725 -44.02838 38199 ft 413 kts 251°
2026-05-09 02:00 50.30916 -44.07111 38193 ft 408 kts 251°
2026-05-09 02:00 50.29288 -44.15635 38190 ft 409 kts 251°
2026-05-09 02:01 50.27658 -44.24147 38183 ft 409 kts 251°
2026-05-09 02:01 50.26017 -44.32690 38186 ft 411 kts 250°
2026-05-09 02:02 50.24368 -44.41236 38145 ft 411 kts 251°